User: anonymous   Login
Location: Whispering Pines Observatory
(39.4020°N, 104.7430°W)
Time: 01:02:55
(UTC-07:00)
Language:

MOS 1 Rocket - Orbit

View from above orbital plane
View from above orbital plane
View from above satellite
View from above satellite

Ground track
Ground track

The orbit data is extracted from the following two-line orbital elements,

1 17528U 87018B   14352.17036331  .00000668  00000-0  15812-3 0  5510
2 17528 097.4412 040.5038 0152000 276.7778 145.6793 14.50208666467666
Epoch (UTC): 18 December 2014 04:05:19
Eccentricity: 0.0152000
inclination: 97.4412°
perigee height: 617 km
apogee height: 833 km
right ascension of ascending node: 40.5038°
argument of perigee: 276.7778°
revolutions per day: 14.50208666
mean anomaly at epoch: 145.6793°
orbit number at epoch: 46766

The dashed part of the orbit path shows where the satellite is in the earth's shadow,  

DLR